Location: Capelle
(50.3413°N, 1.9974°E)
Time: 13:40:46
(UTC+00:00)

NOSS 3-4 (A) - Pass Details

Date: 12 January 2026
Orbit: 769 x 1442 km, 63.4° (Epoch: 10 January)

Event Time Altitude Azimuth Distance (km) Brightness Sun altitude
Rises 17:32:10 0° 181° (S) 3,227 6.5 -12.1°
Reaches altitude 10° 17:34:52 10° 168° (SSE) 2,320 5.6 -12.5°
Maximum altitude 17:39:06 25° 114° (ESE) 1,568 4.2 -13.2°
Enters shadow 17:41:28 19° 78° (ENE) 1,883 4.4 -13.5°
